,,,PA_Meas_PMT16A,,PR_Meas_QMR101_102,,RH_Meas_QMH101,,SR_Meas_QMS101,,TA_Meas_QMH101,,GenWind,,GenWind,
date,time,status,PA,status,PR,status,RH,status,SR,status,TA,status,DirAvg,status,SpdAvg,
2008-09-03, 00:00:04,VALID,1009.71,VALID,0,VALID,95.0474,VALID,0.105969,VALID,24.158,VALID,168,VALID,0.108984,
2008-09-03, 00:01:04,VALID,1009.71,VALID,0,VALID,95.055,VALID,0.105969,VALID,24.2183,VALID,168,VALID,0,
2008-09-03, 00:02:04,VALID,1009.65,VALID,0,VALID,95.0703,VALID,0.105969,VALID,24.2183,VALID,168,VALID,0.00195313,
2008-09-03, 00:03:04,VALID,1009.61,VALID,0,VALID,95.0779,VALID,0,VALID,24.2183,VALID,168,VALID,0.0203125,
2008-09-03, 00:04:04,VALID,1009.6,VALID,0,VALID,95.0855,VALID,0.105969,VALID,24.2183,VALID,168,VALID,0,
2008-09-03, 00:05:04,VALID,1009.58,VALID,0,VALID,95.0703,VALID,0,VALID,24.2183,VALID,168,VALID,0,
2008-09-03, 00:06:04,VALID,1009.56,VALID,0,VALID,95.0703,VALID,0.105969,VALID,24.2378,VALID,168,VALID,0,
2008-09-03, 00:07:04,VALID,1009.55,VALID,0,VALID,95.0855,VALID,0.105969,VALID,24.2378,VALID,168,VALID,0,
2008-09-03, 00:08:04,VALID,1009.53,VALID,0,VALID,95.0855,VALID,0.105969,VALID,24.2165,VALID,168,VALID,0,
2008-09-03, 00:09:04,VALID,1009.54,VALID,0,VALID,95.0703,VALID,0.105969,VALID,24.2378,VALID,168,VALID,0.221484,
2008-09-03, 00:10:04,VALID,1009.52,VALID,0,VALID,95.0855,VALID,0.105969,VALID,24.2573,VALID,168,VALID,0.132031,
2008-09-03, 00:11:04,VALID,1009.53,VALID,0,VALID,95.055,VALID,0.105969,VALID,24.2573,VALID,168,VALID,0.155859,
2008-09-03, 00:12:04,VALID,1009.52,VALID,0,VALID,95.0398,VALID,0.105969,VALID,24.2768,VALID,168,VALID,0.0046875,
2008-09-03, 00:13:04,VALID,1009.52,VALID,0,VALID,95.0398,VALID,0.105969,VALID,24.2768,VALID,168,VALID,0,
2008-09-03, 00:14:04,VALID,1009.51,VALID,0,VALID,95.0169,VALID,0.105969,VALID,24.2963,VALID,168,VALID,0,
2008-09-03, 00:15:04,VALID,1009.5,VALID,0,VALID,95.0245,VALID,0,VALID,24.2963,VALID,168,VALID,0,
2008-09-03, 00:16:04,VALID,1009.51,VALID,0,VALID,95.0016,VALID,0.105969,VALID,24.3371,VALID,168,VALID,0.203516,
2008-09-03, 00:17:04,VALID,1009.53,VALID,0,VALID,95.0016,VALID,0,VALID,24.2963,VALID,168,VALID,0.203125,
2008-09-03, 00:18:04,VALID,1009.47,VALID,0,VALID,94.994,VALID,0.105969,VALID,24.3761,VALID,168,VALID,0.152734,
2008-09-03, 00:19:04,VALID,1009.48,VALID,0,VALID,94.9711,VALID,0.105969,VALID,24.3547,VALID,168,VALID,0.256641,
2008-09-03, 00:20:04,VALID,1009.48,VALID,0,VALID,94.9635,VALID,0.105969,VALID,24.3547,VALID,168,VALID,0.55625,
2008-09-03, 00:21:04,VALID,1009.47,VALID,0,VALID,94.9483,VALID,0.105969,VALID,24.3547,VALID,168,VALID,0.366797,
2008-09-03, 00:22:04,VALID,1009.46,VALID,0,VALID,94.9025,VALID,0.105969,VALID,24.3742,VALID,168,VALID,0.414453,
2008-09-03, 00:23:04,VALID,1009.44,VALID,0,VALID,94.8796,VALID,0.105969,VALID,24.3742,VALID,163,VALID,0.513672,
2008-09-03, 00:24:04,VALID,1009.42,VALID,0,VALID,94.8491,VALID,0,VALID,24.3937,VALID,172,VALID,0.43125,
2008-09-03, 00:25:04,VALID,1009.47,VALID,0,VALID,94.7881,VALID,0.105969,VALID,24.3937,VALID,169,VALID,0.463281,
2008-09-03, 00:26:04,VALID,1009.44,VALID,0,VALID,94.6737,VALID,0.105969,VALID,24.3937,VALID,165,VALID,0.877344,
2008-09-03, 00:27:04,VALID,1009.44,VALID,0,VALID,94.4831,VALID,0,VALID,24.4345,VALID,173,VALID,0.918359,
2008-09-03, 00:28:04,VALID,1009.43,VALID,0,VALID,94.1704,VALID,0,VALID,24.4735,VALID,164,VALID,0.914844,
2008-09-03, 00:29:04,VALID,1009.41,VALID,0,VALID,93.6671,VALID,0.105969,VALID,24.4911,VALID,162,VALID,0.757031,
2008-09-03, 00:30:04,VALID,1009.41,VALID,0,VALID,93.1028,VALID,0,VALID,24.532,VALID,182,VALID,1.48125,
2008-09-03, 00:31:04,VALID,1009.44,VALID,0,VALID,92.6758,VALID,0,VALID,24.571,VALID,189,VALID,0.866797,
2008-09-03, 00:32:04,VALID,1009.39,VALID,0,VALID,91.9437,VALID,0.105969,VALID,24.5691,VALID,180,VALID,1.73281,
2008-09-03, 00:33:04,VALID,1009.39,VALID,0,VALID,91.448,VALID,0,VALID,24.5886,VALID,171,VALID,1.47383,
2008-09-03, 00:34:04,VALID,1009.39,VALID,0,VALID,91.2421,VALID,0,VALID,24.6081,VALID,189,VALID,1.62891,
2008-09-03, 00:35:04,VALID,1009.36,VALID,0,VALID,91.1201,VALID,0.105969,VALID,24.6081,VALID,184,VALID,1.41797,
2008-09-03, 00:36:04,VALID,1009.33,VALID,0,VALID,91.143,VALID,0.105969,VALID,24.6081,VALID,178,VALID,1.17891,
2008-09-03, 00:37:04,VALID,1009.32,VALID,0,VALID,91.143,VALID,0,VALID,24.6294,VALID,170,VALID,1.15664,
2008-09-03, 00:38:04,VALID,1009.29,VALID,0,VALID,91.3947,VALID,0.105969,VALID,24.6276,VALID,175,VALID,0.620703,
2008-09-03, 00:39:04,VALID,1009.28,VALID,0,VALID,91.387,VALID,0,VALID,24.6081,VALID,196,VALID,0.937109,
2008-09-03, 00:40:04,VALID,1009.28,VALID,0,VALID,91.3642,VALID,0.105969,VALID,24.6081,VALID,195,VALID,0.841797,
2008-09-03, 00:41:04,VALID,1009.28,VALID,0,VALID,91.4252,VALID,0.105969,VALID,24.6099,VALID,173,VALID,0.625781,
2008-09-03, 00:42:04,VALID,1009.29,VALID,0,VALID,91.4633,VALID,0.105969,VALID,24.5886,VALID,164,VALID,0.491406,
2008-09-03, 00:43:04,VALID,1009.29,VALID,0,VALID,91.5243,VALID,0,VALID,24.5496,VALID,164,VALID,0.426953,
2008-09-03, 00:44:04,VALID,1009.28,VALID,0,VALID,91.6387,VALID,0,VALID,24.5905,VALID,164,VALID,0.486328,
2008-09-03, 00:45:04,VALID,1009.29,VALID,0,VALID,91.7073,VALID,0.105969,VALID,24.5496,VALID,172,VALID,0.582422,
2008-09-03, 00:46:04,VALID,1009.24,VALID,0,VALID,91.6692,VALID,0,VALID,24.5496,VALID,159,VALID,0.946875,
2008-09-03, 00:47:04,VALID,1009.23,VALID,0,VALID,91.7454,VALID,0,VALID,24.5515,VALID,166,VALID,0.740625,
2008-09-03, 00:48:04,VALID,1009.24,VALID,0,VALID,91.9285,VALID,0.105969,VALID,24.5301,VALID,166,VALID,0.452344,
2008-09-03, 00:49:04,VALID,1009.23,VALID,0,VALID,91.8827,VALID,0.105969,VALID,24.4911,VALID,163,VALID,1.11367,
2008-09-03, 00:50:04,VALID,1009.21,VALID,0,VALID,91.898,VALID,0,VALID,24.5106,VALID,164,VALID,0.736719,
2008-09-03, 00:51:04,VALID,1009.21,VALID,0,VALID,91.9742,VALID,0,VALID,24.4911,VALID,171,VALID,0.791797,
2008-09-03, 00:52:04,VALID,1009.19,VALID,0,VALID,92.0428,VALID,0,VALID,24.4911,VALID,166,VALID,0.649219,
2008-09-03, 00:53:04,VALID,1009.18,VALID,0,VALID,92.0352,VALID,0.105969,VALID,24.5125,VALID,175,VALID,0.620313,
2008-09-03, 00:54:04,VALID,1009.21,VALID,0,VALID,92.1039,VALID,0.105969,VALID,24.4911,VALID,174,VALID,0.684766,
2008-09-03, 00:55:04,VALID,1009.2,VALID,0,VALID,92.1649,VALID,0,VALID,24.4717,VALID,175,VALID,0.694141,
2008-09-03, 00:56:04,VALID,1009.21,VALID,0,VALID,92.1954,VALID,0.105969,VALID,24.5125,VALID,165,VALID,0.473437,
2008-09-03, 00:57:04,VALID,1009.21,VALID,0,VALID,92.2335,VALID,0.105969,VALID,24.5125,VALID,173,VALID,0.422266,
2008-09-03, 00:58:04,VALID,1009.24,VALID,0,VALID,92.3402,VALID,0.105969,VALID,24.5125,VALID,173,VALID,0.259766,
2008-09-03, 00:59:04,VALID,1009.23,VALID,0,VALID,92.4241,VALID,0.105969,VALID,24.4911,VALID,173,VALID,0.0105469,
2008-09-03, 01:00:04,VALID,1009.23,VALID,0,VALID,92.4623,VALID,0.105969,VALID,24.4911,VALID,173,VALID,0.175781,
2008-09-03, 01:01:04,VALID,1009.23,VALID,0,VALID,92.6148,VALID,0,VALID,24.5125,VALID,173,VALID,0.195703,
2008-09-03, 01:02:04,VALID,1009.2,VALID,0,VALID,92.6453,VALID,0,VALID,24.493,VALID,173,VALID,0.132031,
2008-09-03, 01:03:04,VALID,1009.2,VALID,0,VALID,92.7597,VALID,0,VALID,24.5301,VALID,160,VALID,0.382422,
2008-09-03, 01:04:04,VALID,1009.17,VALID,0,VALID,92.7902,VALID,0.105969,VALID,24.532,VALID,186,VALID,0.763672,
2008-09-03, 01:05:04,VALID,1009.16,VALID,0,VALID,92.7444,VALID,0,VALID,24.5515,VALID,215,VALID,0.663281,
2008-09-03, 01:06:04,VALID,1009.14,VALID,0,VALID,92.8054,VALID,0,VALID,24.5106,VALID,202,VALID,0.71875,
2008-09-03, 01:07:04,VALID,1009.11,VALID,0,VALID,92.7749,VALID,0,VALID,24.532,VALID,203,VALID,0.584375,
2008-09-03, 01:08:04,VALID,1009.1,VALID,0,VALID,92.7444,VALID,0.105969,VALID,24.5106,VALID,193,VALID,0.639453,
2008-09-03, 01:09:04,VALID,1009.09,VALID,0,VALID,92.7749,VALID,0,VALID,24.5515,VALID,188,VALID,0.701953,
2008-09-03, 01:10:04,VALID,1009.1,VALID,0,VALID,92.7749,VALID,0.105969,VALID,24.5106,VALID,188,VALID,0.586719,
2008-09-03, 01:11:04,VALID,1009.09,VALID,0,VALID,92.691,VALID,0.105969,VALID,24.4911,VALID,187,VALID,0.671875,
2008-09-03, 01:12:04,VALID,1009.1,VALID,0,VALID,92.7444,VALID,0.105969,VALID,24.532,VALID,172,VALID,0.438281,
2008-09-03, 01:13:04,VALID,1009.1,VALID,0,VALID,92.8512,VALID,0,VALID,24.5125,VALID,172,VALID,0.264844,
2008-09-03, 01:14:04,VALID,1009.12,VALID,0,VALID,92.8359,VALID,0.105969,VALID,24.4911,VALID,158,VALID,0.437891,
2008-09-03, 01:15:04,VALID,1009.14,VALID,0,VALID,92.8512,VALID,0,VALID,24.4717,VALID,138,VALID,0.402344,
2008-09-03, 01:16:04,VALID,1009.13,VALID,0,VALID,92.8893,VALID,0,VALID,24.493,VALID,155,VALID,0.788281,
2008-09-03, 01:17:04,VALID,1009.14,VALID,0,VALID,92.9198,VALID,0,VALID,24.493,VALID,156,VALID,0.528125,
2008-09-03, 01:18:04,VALID,1009.13,VALID,0,VALID,92.9198,VALID,0,VALID,24.4735,VALID,157,VALID,0.397656,
2008-09-03, 01:19:04,VALID,1009.13,VALID,0,VALID,92.9351,VALID,0,VALID,24.454,VALID,155,VALID,0.505469,
2008-09-03, 01:20:04,VALID,1009.13,VALID,0,VALID,93.0113,VALID,0.105969,VALID,24.454,VALID,151,VALID,0.409766,
2008-09-03, 01:21:04,VALID,1009.1,VALID,0,VALID,92.9274,VALID,0,VALID,24.4735,VALID,154,VALID,0.56875,
2008-09-03, 01:22:04,VALID,1009.15,VALID,0,VALID,92.8359,VALID,0,VALID,24.4735,VALID,155,VALID,0.498437,
2008-09-03, 01:23:04,VALID,1009.13,VALID,0,VALID,92.7902,VALID,0,VALID,24.4735,VALID,155,VALID,0.273828,
2008-09-03, 01:24:04,VALID,1009.15,VALID,0,VALID,92.6987,VALID,0,VALID,24.4735,VALID,173,VALID,0.585156,
2008-09-03, 01:25:04,VALID,1009.15,VALID,0,VALID,92.5843,VALID,0,VALID,24.4522,VALID,205,VALID,0.635547,
2008-09-03, 01:26:04,VALID,1009.14,VALID,0,VALID,92.4775,VALID,0,VALID,24.4949,VALID,177,VALID,0.510938,
2008-09-03, 01:27:04,VALID,1009.13,VALID,0,VALID,92.5995,VALID,0,VALID,24.493,VALID,183,VALID,0.586328,
2008-09-03, 01:28:04,VALID,1009.11,VALID,0,VALID,92.63,VALID,0,VALID,24.5125,VALID,178,VALID,0.516797,
2008-09-03, 01:29:04,VALID,1009.07,VALID,0,VALID,92.6224,VALID,0,VALID,24.493,VALID,176,VALID,0.529688,
2008-09-03, 01:30:04,VALID,1009.07,VALID,0,VALID,92.5004,VALID,0.105969,VALID,24.493,VALID,171,VALID,0.771875,
2008-09-03, 01:31:04,VALID,1009.02,VALID,0,VALID,92.3555,VALID,0,VALID,24.4717,VALID,175,VALID,0.913281,
2008-09-03, 01:32:04,VALID,1009.02,VALID,0,VALID,92.3326,VALID,0,VALID,24.5144,VALID,173,VALID,0.707812,
2008-09-03, 01:33:04,VALID,1009.01,VALID,0,VALID,92.1496,VALID,0,VALID,24.4735,VALID,162,VALID,0.864062,
2008-09-03, 01:34:04,VALID,1009.01,VALID,0,VALID,92.203,VALID,0,VALID,24.493,VALID,158,VALID,0.617188,
2008-09-03, 01:35:04,VALID,1008.96,VALID,0,VALID,92.1801,VALID,0,VALID,24.493,VALID,152,VALID,0.797656,
2008-09-03, 01:36:04,VALID,1008.94,VALID,0,VALID,92.2564,VALID,0,VALID,24.493,VALID,139,VALID,0.45,
2008-09-03, 01:37:04,VALID,1008.91,VALID,0,VALID,92.1954,VALID,0,VALID,24.493,VALID,139,VALID,0.371484,
2008-09-03, 01:38:04,VALID,1008.9,VALID,0,VALID,92.0276,VALID,0,VALID,24.4735,VALID,139,VALID,0.333203,
2008-09-03, 01:39:04,VALID,1008.88,VALID,0,VALID,92.0962,VALID,0,VALID,24.4735,VALID,152,VALID,0.621875,
2008-09-03, 01:40:04,VALID,1008.86,VALID,0,VALID,92.0505,VALID,0,VALID,24.4735,VALID,152,VALID,0.272266,
2008-09-03, 01:41:04,VALID,1008.86,VALID,0,VALID,91.9971,VALID,0,VALID,24.4949,VALID,153,VALID,0.39375,
2008-09-03, 01:42:04,VALID,1008.87,VALID,0,VALID,91.8293,VALID,0,VALID,24.4754,VALID,152,VALID,0.148438,
2008-09-03, 01:43:04,VALID,1008.88,VALID,0,VALID,91.8827,VALID,0,VALID,24.4132,VALID,152,VALID,0,
2008-09-03, 01:44:04,VALID,1008.88,VALID,0,VALID,92.0047,VALID,0,VALID,24.4735,VALID,153,VALID,0,
2008-09-03, 01:45:04,VALID,1008.9,VALID,0,VALID,92.0428,VALID,0,VALID,24.454,VALID,127,VALID,0.564844,
2008-09-03, 01:46:04,VALID,1008.9,VALID,0,VALID,92.0123,VALID,0,VALID,24.4735,VALID,120,VALID,0.625,
2008-09-03, 01:47:04,VALID,1008.91,VALID,0,VALID,92.1496,VALID,0,VALID,24.4735,VALID,108,VALID,0.467969,
2008-09-03, 01:48:04,VALID,1008.95,VALID,0,VALID,92.142,VALID,0,VALID,24.4735,VALID,108,VALID,0.401563,
2008-09-03, 01:49:04,VALID,1008.97,VALID,0,VALID,92.6224,VALID,0,VALID,24.493,VALID,106,VALID,0.466016,
2008-09-03, 01:50:04,VALID,1008.99,VALID,0,VALID,92.6071,VALID,0,VALID,24.4735,VALID,87,VALID,0.53125,
2008-09-03, 01:51:04,VALID,1008.99,VALID,0,VALID,92.5309,VALID,0,VALID,24.454,VALID,79,VALID,0.578516,
2008-09-03, 01:52:04,VALID,1009.03,VALID,0,VALID,92.5614,VALID,0,VALID,24.4345,VALID,80,VALID,0.642578,
2008-09-03, 01:53:04,VALID,1009.03,VALID,0,VALID,92.5309,VALID,0,VALID,24.4345,VALID,91,VALID,0.648438,
2008-09-03, 01:54:04,VALID,1009.04,VALID,0,VALID,92.4699,VALID,0,VALID,24.415,VALID,96,VALID,0.499609,
2008-09-03, 01:55:04,VALID,1008.98,VALID,0,VALID,92.5004,VALID,0,VALID,24.415,VALID,98,VALID,0.814062,
2008-09-03, 01:56:04,VALID,1009.01,VALID,0,VALID,92.4699,VALID,0,VALID,24.415,VALID,117,VALID,0.627734,
2008-09-03, 01:57:04,VALID,1009.01,VALID,0,VALID,92.4546,VALID,0,VALID,24.415,VALID,114,VALID,0.588281,
2008-09-03, 01:58:04,VALID,1008.97,VALID,0,VALID,92.7215,VALID,0,VALID,24.415,VALID,94,VALID,0.771875,
2008-09-03, 01:59:04,VALID,1008.98,VALID,0,VALID,92.8588,VALID,0,VALID,24.3761,VALID,91,VALID,0.579297,
2008-09-03, 02:00:04,VALID,1008.96,VALID,0,VALID,93.0418,VALID,0,VALID,24.3371,VALID,100,VALID,0.658203,
2008-09-03, 02:01:04,VALID,1008.93,VALID,0,VALID,93.3011,VALID,0,VALID,24.3371,VALID,100,VALID,0.3875,
2008-09-03, 02:02:04,VALID,1008.95,VALID,0,VALID,93.3621,VALID,0.105969,VALID,24.2963,VALID,89,VALID,0.606641,
2008-09-03, 02:03:04,VALID,1008.94,VALID,0,VALID,93.446,VALID,0,VALID,24.2981,VALID,94,VALID,0.701563,
2008-09-03, 02:04:04,VALID,1008.92,VALID,0,VALID,93.4002,VALID,0,VALID,24.3,VALID,117,VALID,0.505469,
2008-09-03, 02:05:04,VALID,1008.9,VALID,0,VALID,93.385,VALID,0,VALID,24.2981,VALID,116,VALID,0.51875,
2008-09-03, 02:06:04,VALID,1008.86,VALID,0,VALID,93.4079,VALID,0,VALID,24.2786,VALID,116,VALID,0.476172,
2008-09-03, 02:07:04,VALID,1008.9,VALID,0,VALID,93.5451,VALID,0,VALID,24.2981,VALID,143,VALID,0.403125,
2008-09-03, 02:08:04,VALID,1008.88,VALID,0,VALID,93.4765,VALID,0,VALID,24.2786,VALID,132,VALID,0.532812,
2008-09-03, 02:09:04,VALID,1008.9,VALID,0,VALID,93.2553,VALID,0,VALID,24.2786,VALID,131,VALID,0.924219,
2008-09-03, 02:10:04,VALID,1008.91,VALID,0,VALID,93.1943,VALID,0,VALID,24.2786,VALID,125,VALID,1.10859,
2008-09-03, 02:11:04,VALID,1008.92,VALID,0,VALID,93.1257,VALID,0,VALID,24.2981,VALID,126,VALID,0.992578,
2008-09-03, 02:12:04,VALID,1008.92,VALID,0,VALID,93.2096,VALID,0,VALID,24.2981,VALID,123,VALID,0.871094,
2008-09-03, 02:13:04,VALID,1008.92,VALID,0,VALID,93.3697,VALID,0,VALID,24.2981,VALID,122,VALID,0.732422,
2008-09-03, 02:14:04,VALID,1008.91,VALID,0,VALID,93.4612,VALID,0,VALID,24.3176,VALID,121,VALID,0.567578,
2008-09-03, 02:15:04,VALID,1008.89,VALID,0,VALID,93.5375,VALID,0,VALID,24.3584,VALID,121,VALID,0.512109,
2008-09-03, 02:16:04,VALID,1008.88,VALID,0,VALID,93.568,VALID,0,VALID,24.3176,VALID,102,VALID,0.613672,
2008-09-03, 02:17:04,VALID,1008.89,VALID,0,VALID,93.4384,VALID,0,VALID,24.2981,VALID,97,VALID,0.741797,
2008-09-03, 02:18:04,VALID,1008.88,VALID,0,VALID,93.4307,VALID,0,VALID,24.2768,VALID,113,VALID,0.572266,
2008-09-03, 02:19:04,VALID,1008.88,VALID,0,VALID,93.4612,VALID,0.105969,VALID,24.2981,VALID,110,VALID,0.359375,
2008-09-03, 02:20:04,VALID,1008.91,VALID,0,VALID,93.4994,VALID,0.105969,VALID,24.2573,VALID,102,VALID,0.728125,
2008-09-03, 02:21:04,VALID,1008.91,VALID,0,VALID,93.5375,VALID,0,VALID,24.2573,VALID,104,VALID,0.486328,
2008-09-03, 02:22:04,VALID,1008.92,VALID,0,VALID,93.5909,VALID,0.105969,VALID,24.2981,VALID,113,VALID,0.619141,
2008-09-03, 02:23:04,VALID,1008.95,VALID,0,VALID,93.5527,VALID,0,VALID,24.2591,VALID,94,VALID,0.818359,
2008-09-03, 02:24:04,VALID,1008.96,VALID,0,VALID,93.507,VALID,0,VALID,24.2183,VALID,76,VALID,0.782031,
2008-09-03, 02:25:04,VALID,1008.94,VALID,0,VALID,93.446,VALID,0,VALID,24.2183,VALID,92,VALID,0.621484,
2008-09-03, 02:26:04,VALID,1008.97,VALID,0,VALID,93.5756,VALID,0,VALID,24.2591,VALID,56,VALID,0.229297,
2008-09-03, 02:27:04,VALID,1008.95,VALID,0,VALID,93.5985,VALID,0,VALID,24.2396,VALID,65,VALID,0.711328,
2008-09-03, 02:28:04,VALID,1008.93,VALID,0,VALID,93.6061,VALID,0,VALID,24.2378,VALID,79,VALID,0.715625,
2008-09-03, 02:29:04,VALID,1008.94,VALID,0,VALID,93.6442,VALID,0,VALID,24.2202,VALID,77,VALID,0.484766,
2008-09-03, 02:30:04,VALID,1008.93,VALID,0,VALID,93.6748,VALID,0,VALID,24.1988,VALID,61,VALID,0.355859,
2008-09-03, 02:31:04,VALID,1008.88,VALID,0,VALID,93.7129,VALID,0,VALID,24.1988,VALID,62,VALID,0.445313,
2008-09-03, 02:32:04,VALID,1008.89,VALID,0,VALID,93.7358,VALID,0,VALID,24.1793,VALID,62,VALID,0.505469,
2008-09-03, 02:33:04,VALID,1008.85,VALID,0,VALID,93.7205,VALID,0.105969,VALID,24.1599,VALID,62,VALID,0.523438,
2008-09-03, 02:34:04,VALID,1008.83,VALID,0,VALID,93.7129,VALID,0,VALID,24.1599,VALID,62,VALID,0.177344,
2008-09-03, 02:35:04,VALID,1008.8,VALID,0,VALID,93.7434,VALID,0,VALID,24.1599,VALID,62,VALID,0.202344,
2008-09-03, 02:36:04,VALID,1008.78,VALID,0,VALID,93.8196,VALID,0,VALID,24.1812,VALID,62,VALID,0.360156,
2008-09-03, 02:37:04,VALID,1008.78,VALID,0,VALID,93.8273,VALID,0.105969,VALID,24.1812,VALID,62,VALID,0.0621094,
2008-09-03, 02:38:04,VALID,1008.74,VALID,0.5,VALID,93.9112,VALID,0,VALID,24.1404,VALID,62,VALID,0.23125,
2008-09-03, 02:39:04,VALID,1008.74,VALID,0,VALID,93.9188,VALID,0.105969,VALID,24.1404,VALID,62,VALID,0.302734,
2008-09-03, 02:40:04,VALID,1008.73,VALID,0,VALID,93.9112,VALID,0,VALID,24.1209,VALID,62,VALID,0.333594,
2008-09-03, 02:41:04,VALID,1008.72,VALID,0,VALID,93.9188,VALID,0,VALID,24.1209,VALID,68,VALID,0.436328,
2008-09-03, 02:42:04,VALID,1008.73,VALID,0,VALID,93.9493,VALID,0,VALID,24.1227,VALID,87,VALID,0.514453,
2008-09-03, 02:43:04,VALID,1008.72,VALID,0,VALID,94.0255,VALID,0,VALID,24.1209,VALID,92,VALID,0.506641,
2008-09-03, 02:44:04,VALID,1008.69,VALID,0,VALID,94.0484,VALID,0,VALID,24.1404,VALID,92,VALID,0.634766,
2008-09-03, 02:45:04,VALID,1008.71,VALID,0,VALID,94.1171,VALID,0.105969,VALID,24.1209,VALID,127,VALID,0.536328,
2008-09-03, 02:46:04,VALID,1008.67,VALID,0,VALID,94.2009,VALID,0.105969,VALID,24.1599,VALID,117,VALID,0.480469,
2008-09-03, 02:47:04,VALID,1008.63,VALID,0,VALID,94.2543,VALID,0,VALID,24.1404,VALID,138,VALID,0.676562,
2008-09-03, 02:48:04,VALID,1008.62,VALID,0,VALID,94.3229,VALID,0,VALID,24.1599,VALID,134,VALID,0.677344,
2008-09-03, 02:49:04,VALID,1008.61,VALID,0,VALID,94.3458,VALID,0,VALID,24.1209,VALID,119,VALID,0.821094,
2008-09-03, 02:50:04,VALID,1008.63,VALID,0,VALID,94.3534,VALID,0.105969,VALID,24.1404,VALID,125,VALID,0.581641,
2008-09-03, 02:51:04,VALID,1008.62,VALID,0,VALID,94.3839,VALID,0.105969,VALID,24.1404,VALID,120,VALID,0.5625,
2008-09-03, 02:52:04,VALID,1008.66,VALID,0,VALID,94.3229,VALID,0,VALID,24.1227,VALID,97,VALID,1.1082,
2008-09-03, 02:53:04,VALID,1008.65,VALID,0,VALID,94.2696,VALID,0,VALID,24.1227,VALID,102,VALID,0.936328,
2008-09-03, 02:54:04,VALID,1008.67,VALID,0,VALID,94.2619,VALID,0,VALID,24.0819,VALID,101,VALID,1.03164,
2008-09-03, 02:55:04,VALID,1008.65,VALID,0,VALID,94.2772,VALID,0,VALID,24.1014,VALID,94,VALID,0.519141,
2008-09-03, 02:56:04,VALID,1008.64,VALID,0,VALID,94.2314,VALID,0,VALID,24.0819,VALID,100,VALID,0.730469,
2008-09-03, 02:57:04,VALID,1008.59,VALID,0,VALID,94.2009,VALID,0,VALID,24.0819,VALID,100,VALID,0.582812,
2008-09-03, 02:58:04,VALID,1008.58,VALID,0,VALID,94.2314,VALID,0,VALID,24.0837,VALID,109,VALID,0.371484,
2008-09-03, 02:59:04,VALID,1008.58,VALID,0,VALID,94.2619,VALID,0,VALID,24.0819,VALID,87,VALID,0.301953,
2008-09-03, 03:00:04,VALID,1008.58,VALID,0,VALID,94.2924,VALID,0.105969,VALID,24.0819,VALID,87,VALID,0.473437,
2008-09-03, 03:01:04,VALID,1008.59,VALID,0,VALID,94.3229,VALID,0.105969,VALID,24.0819,VALID,90,VALID,0.710547,
2008-09-03, 03:02:04,VALID,1008.58,VALID,0,VALID,94.3382,VALID,0,VALID,24.1209,VALID,106,VALID,0.748047,
2008-09-03, 03:03:04,VALID,1008.58,VALID,0,VALID,94.3763,VALID,0,VALID,24.1014,VALID,101,VALID,0.5625,
2008-09-03, 03:04:04,VALID,1008.55,VALID,0,VALID,94.4068,VALID,0.105969,VALID,24.1014,VALID,99,VALID,0.732031,
2008-09-03, 03:05:04,VALID,1008.55,VALID,0,VALID,94.4373,VALID,0.105969,VALID,24.1014,VALID,86,VALID,0.803125,
2008-09-03, 03:06:04,VALID,1008.56,VALID,0,VALID,94.445,VALID,0.105969,VALID,24.1014,VALID,105,VALID,0.760156,
2008-09-03, 03:07:04,VALID,1008.53,VALID,0,VALID,94.445,VALID,0.105969,VALID,24.0819,VALID,96,VALID,0.896484,
2008-09-03, 03:08:04,VALID,1008.51,VALID,0,VALID,94.4297,VALID,0,VALID,24.0819,VALID,99,VALID,0.689062,
2008-09-03, 03:09:04,VALID,1008.49,VALID,0,VALID,94.445,VALID,0.105969,VALID,24.0819,VALID,96,VALID,0.596875,
2008-09-03, 03:10:04,VALID,1008.48,VALID,0,VALID,94.4526,VALID,0,VALID,24.0624,VALID,95,VALID,0.897656,
2008-09-03, 03:11:04,VALID,1008.47,VALID,0,VALID,94.4526,VALID,0,VALID,24.0624,VALID,78,VALID,0.421484,
2008-09-03, 03:12:04,VALID,1008.45,VALID,0,VALID,94.4602,VALID,0,VALID,24.0819,VALID,90,VALID,0.684766,
2008-09-03, 03:13:04,VALID,1008.48,VALID,0,VALID,94.4678,VALID,0,VALID,24.1032,VALID,86,VALID,0.707422,
2008-09-03, 03:14:04,VALID,1008.47,VALID,0,VALID,94.4907,VALID,0,VALID,24.0624,VALID,86,VALID,0.905078,
2008-09-03, 03:15:04,VALID,1008.48,VALID,0.5,VALID,94.4678,VALID,0.105969,VALID,24.0624,VALID,102,VALID,0.891406,
2008-09-03, 03:16:04,VALID,1008.48,VALID,0,VALID,94.4678,VALID,0.105969,VALID,24.0624,VALID,102,VALID,0.674609,
2008-09-03, 03:17:04,VALID,1008.49,VALID,0,VALID,94.506,VALID,0.105969,VALID,24.1032,VALID,111,VALID,0.780859,
2008-09-03, 03:18:04,VALID,1008.48,VALID,0,VALID,94.4602,VALID,0.105969,VALID,24.0624,VALID,105,VALID,1.20781,
2008-09-03, 03:19:04,VALID,1008.51,VALID,0,VALID,94.4602,VALID,0.105969,VALID,24.0624,VALID,102,VALID,0.858203,
2008-09-03, 03:20:04,VALID,1008.5,VALID,0,VALID,94.4907,VALID,0.105969,VALID,24.0819,VALID,108,VALID,1.21836,
2008-09-03, 03:21:04,VALID,1008.5,VALID,0,VALID,94.4602,VALID,0,VALID,24.0429,VALID,108,VALID,1.24844,
2008-09-03, 03:22:04,VALID,1008.5,VALID,0,VALID,94.4907,VALID,0.105969,VALID,24.0624,VALID,115,VALID,0.564062,
2008-09-03, 03:23:04,VALID,1008.52,VALID,0,VALID,94.5212,VALID,0.105969,VALID,24.0819,VALID,98,VALID,1.18984,
2008-09-03, 03:24:04,VALID,1008.52,VALID,0,VALID,94.5136,VALID,0.105969,VALID,24.0837,VALID,88,VALID,1.3293,
2008-09-03, 03:25:04,VALID,1008.5,VALID,0,VALID,94.4983,VALID,0.105969,VALID,24.0837,VALID,99,VALID,1.21172,
2008-09-03, 03:26:04,VALID,1008.5,VALID,0,VALID,94.5136,VALID,0.105969,VALID,24.1032,VALID,89,VALID,0.6625,
2008-09-03, 03:27:04,VALID,1008.51,VALID,0,VALID,94.5136,VALID,0.105969,VALID,24.0624,VALID,111,VALID,1.29414,
2008-09-03, 03:28:04,VALID,1008.54,VALID,0,VALID,94.4907,VALID,0.105969,VALID,24.0606,VALID,101,VALID,1.46445,
2008-09-03, 03:29:04,VALID,1008.56,VALID,0,VALID,94.4831,VALID,0.105969,VALID,24.0819,VALID,95,VALID,1.03516,
2008-09-03, 03:30:04,VALID,1008.61,VALID,0,VALID,94.5136,VALID,0.105969,VALID,24.1014,VALID,87,VALID,0.945313,
2008-09-03, 03:31:04,VALID,1008.61,VALID,0,VALID,94.4678,VALID,0,VALID,24.0837,VALID,80,VALID,1.46797,
2008-09-03, 03:32:04,VALID,1008.65,VALID,0,VALID,94.4373,VALID,0,VALID,24.1032,VALID,89,VALID,1.04688,
2008-09-03, 03:33:04,VALID,1008.6,VALID,0,VALID,94.4145,VALID,0,VALID,24.0837,VALID,111,VALID,1.80195,
2008-09-03, 03:34:04,VALID,1008.65,VALID,0,VALID,94.4068,VALID,0,VALID,24.0837,VALID,100,VALID,1.3918,
2008-09-03, 03:35:04,VALID,1008.65,VALID,0,VALID,94.3763,VALID,0,VALID,24.0837,VALID,85,VALID,1.40039,
2008-09-03, 03:36:04,VALID,1008.65,VALID,0,VALID,94.3611,VALID,0,VALID,24.0643,VALID,78,VALID,1.3875,
2008-09-03, 03:37:04,VALID,1008.66,VALID,0,VALID,94.3306,VALID,0,VALID,24.0643,VALID,83,VALID,1.16641,
2008-09-03, 03:38:04,VALID,1008.66,VALID,0,VALID,94.3077,VALID,0,VALID,24.0448,VALID,82,VALID,1.04258,
2008-09-03, 03:39:04,VALID,1008.67,VALID,0,VALID,94.2619,VALID,0,VALID,24.0448,VALID,84,VALID,1.88437,
2008-09-03, 03:40:04,VALID,1008.72,VALID,0,VALID,94.2696,VALID,0,VALID,24.0466,VALID,69,VALID,1.24375,